Tracking 35280 objects as of 7-Sep-2026
HD Live streaming from Space Station
objects crossing your sky now

PEGASUS DEB


PEGASUS DEB is no longer on orbit


NORAD ID: 24406
Int'l Code: 1994-029RK
Launch date: May 19, 1994
Source: United States (US)
Launch site: AIR FORCE WESTERN TEST RANGE (AFWTR)
Decay date: 1997-05-01

Note: This is SATELLITE DEBRIS
Your satellite tracking list
Your tracking list is empty




NASA's NSSDC Master Catalog

Two Line Element Set (TLE):
1 24406U 94029RK  97119.71219692  .01219577  00000-0  83807-2 0  9994
2 24406 081.7685 216.9361 0042465 270.6445 089.0583 15.73300978 47861
Source of the keplerian elements: AFSPC